Location: Arnold
(38.6403°N, 100.0462°W)
Time: 08:56:27
(UTC-05:00)

Envisat - Visible Passes

Search period start: 19 October 2018 00:00
Search period end: 29 October 2018 00:00
Orbit: 764 x 766 km, 98.2° (Epoch: 19 October)

Date Brightness Start Highest point End Pass type
(mag) Time Alt. Az. Time Alt. Az. Time Alt. Az.
19 Oct 2.8 20:32:23 10° SSE 20:37:26 77° ENE 20:42:32 10° N visible
19 Oct 6.0 22:15:45 10° WSW 22:16:59 11° W 22:18:13 10° WNW visible
20 Oct 3.6 19:56:20 10° SE 20:00:52 34° ENE 20:05:25 10° N visible
20 Oct 5.0 21:35:42 10° SSW 21:39:54 26° W 21:44:06 10° NW visible
21 Oct 4.5 19:21:29 10° E 19:24:29 16° ENE 19:27:30 10° NNE visible
21 Oct 3.5 20:58:00 10° S 21:02:59 59° W 21:08:01 10° NNW visible
22 Oct 2.9 20:21:18 10° SSE 20:26:17 60° ENE 20:31:17 10° N visible
22 Oct 5.7 22:02:59 10° WSW 22:05:40 14° W 22:08:22 10° WNW visible
23 Oct 3.9 19:45:33 10° SE 19:49:46 27° ENE 19:54:00 10° NNE visible
23 Oct 4.6 21:24:07 10° SSW 21:28:38 33° W 21:33:11 10° NNW visible
24 Oct 3.1 20:46:44 10° S 20:51:48 76° WSW 20:56:53 10° NNW visible
25 Oct 3.2 20:10:18 10° SE 20:15:08 47° ENE 20:20:00 10° N visible
25 Oct 5.4 21:50:55 10° SW 21:54:23 18° W 21:57:53 10° NW visible
26 Oct 4.1 19:34:53 10° ESE 19:38:41 22° ENE 19:42:30 10° NNE visible
26 Oct 4.1 21:12:37 10° S 21:17:24 42° W 21:22:13 10° NNW visible
27 Oct 2.8 20:35:33 10° SSE 20:40:37 85° ENE 20:45:43 10° NNW visible
28 Oct 3.5 19:59:23 10° SE 20:04:01 37° ENE 20:08:40 10° N visible
28 Oct 5.1 21:39:05 10° SSW 21:43:06 23° W 21:47:08 10° NW visible
